| time (UTC) | temp C | wind direction | speed KPH | gust KPH | rain 1hr cm | rain 24hr cm | rain mn cm | humidity % | barometer mb |
| 20260504003304 | 11 | 200 | 3.2 | 0.0 | 0.00 | 0.00 | 0.00 | 71 | 1013.0 |
| 20260504000246 | 13 | 0 | 3.2 | 0.0 | 0.00 | 0.00 | 0.00 | 54 | 1013.0 |
| 20260503233304 | 12 | 0 | 3.2 | 0.0 | 0.00 | 0.00 | 0.00 | 62 | 1013.0 |
| 20260503230306 | 12 | 0 | 3.2 | 0.0 | 0.00 | 0.00 | 0.00 | 62 | 1013.0 |
| 20260503223231 | 15 | 0 | 3.2 | 0.0 | 0.00 | 0.00 | 0.00 | 51 | 1012.0 |
| 20260503220240 | 16 | 120 | 4.8 | 0.0 | 0.00 | 0.00 | 0.00 | 48 | 1012.0 |
| 20260503213305 | 16 | 120 | 9.7 | 0.0 | 0.00 | 0.00 | 0.00 | 48 | 1012.0 |
| 20260503210307 | 16 | 100 | 12.9 | 0.0 | 0.00 | 0.00 | 0.00 | 48 | 1012.0 |
| 20260503203231 | 17 | 110 | 14.5 | 0.0 | 0.00 | 0.00 | 0.00 | 42 | 1013.0 |
| 20260503200306 | 18 | 110 | 9.7 | 0.0 | 0.00 | 0.00 | 0.00 | 39 | 1013.0 |
| 20260503193305 | 18 | 0 | 3.2 | 0.0 | 0.00 | 0.00 | 0.00 | 39 | 1013.0 |
| 20260503190306 | 20 | 110 | 11.3 | 0.0 | 0.00 | 0.00 | 0.00 | 40 | 1013.0 |
| 20260503183238 | 20 | 110 | 14.5 | 0.0 | 0.00 | 0.00 | 0.00 | 37 | 1012.0 |
| 20260503180249 | 22 | 110 | 20.9 | 0.0 | 0.00 | 0.00 | 0.00 | 33 | 1012.0 |
| 20260503173305 | 22 | 110 | 22.5 | 0.0 | 0.00 | 0.00 | 0.00 | 31 | 1012.0 |
| 20260503170307 | 23 | 100 | 29.0 | 0.0 | 0.00 | 0.00 | 0.00 | 29 | 1012.0 |
| 20260503150306 | 26 | 100 | 24.1 | 0.0 | 0.00 | 0.00 | 0.00 | 22 | 1013.0 |
| 20260503140312 | 26 | 110 | 19.3 | 0.0 | 0.00 | 0.00 | 0.00 | 26 | 1013.0 |
| 20260503130311 | 26 | 80 | 16.1 | 0.0 | 0.00 | 0.00 | 0.00 | 24 | 1014.0 |
| 20260503110313 | 23 | 100 | 11.3 | 0.0 | 0.00 | 0.00 | 0.00 | 23 | 1015.0 |
| 20260503100246 | 22 | 80 | 8.0 | 0.0 | 0.00 | 0.00 | 0.00 | 29 | 1016.0 |
| 20260503090247 | 20 | 90 | 8.0 | 0.0 | 0.00 | 0.00 | 0.00 | 34 | 1017.0 |
| 20260503080314 | 17 | 0 | 3.2 | 0.0 | 0.00 | 0.00 | 0.00 | 42 | 1017.0 |
| 20260503070314 | 13 | 0 | 1.6 | 0.0 | 0.00 | 0.00 | 0.00 | 47 | 1018.0 |
| 20260503060304 | 10 | 0 | 1.6 | 0.0 | 0.00 | 0.00 | 0.00 | 66 | 1018.0 |
| 20260503053305 | 7 | 200 | 4.8 | 0.0 | 0.00 | 0.00 | 0.00 | 65 | 1017.0 |
| 20260503050246 | 6 | 0 | 3.2 | 0.0 | 0.00 | 0.00 | 0.00 | 81 | 1017.0 |
| 20260503043230 | 5 | 200 | 9.7 | 0.0 | 0.00 | 0.00 | 0.00 | 75 | 1017.0 |
| 20260503040306 | 3 | 190 | 4.8 | 0.0 | 0.00 | 0.00 | 0.00 | 80 | 1017.0 |
| 20260503033238 | 3 | 210 | 4.8 | 0.0 | 0.00 | 0.00 | 0.00 | 80 | 1017.0 |
| 20260503030246 | 5 | 200 | 9.7 | 0.0 | 0.00 | 0.00 | 0.00 | 75 | 1017.0 |
| 20260503023303 | 6 | 200 | 8.0 | 0.0 | 0.00 | 0.00 | 0.00 | 70 | 1017.0 |
| 20260503020305 | 6 | 210 | 4.8 | 0.0 | 0.00 | 0.00 | 0.00 | 70 | 1017.0 |
| 20260503013304 | 7 | 0 | 3.2 | 0.0 | 0.00 | 0.00 | 0.00 | 70 | 1018.0 |
| 20260503010306 | 7 | 0 | 3.2 | 0.0 | 0.00 | 0.00 | 0.00 | 70 | 1018.0 |